This is the latest recevied weather packets stored in our database for station/object KD8FRE. If no packets are shown the sender has not sent any weather packets the latest 10 day(s).
| Time | Temp. | Humidity | Pressure | Rain* | Wind** | Luminosity | Snow |
|---|---|---|---|---|---|---|---|
| 1777477859 | 8.89° C | 82% | 1012.5 hPa | 0 mm | - | 280 W/m² | - |
| 1777477554 | 8.89° C | 83% | 1012.4 hPa | 0 mm | - | 173 W/m² | - |
| 1777477251 | 8.89° C | 84% | 1012.7 hPa | 0 mm | - | 131 W/m² | - |
| 1777476948 | 8.89° C | 85% | 1012.7 hPa | 0 mm | - | 117 W/m² | - |
| 1777476646 | 8.89° C | 86% | 1012.8 hPa | 0 mm | - | 112 W/m² | - |
| 1777476342 | 8.89° C | 88% | 1012.8 hPa | 0 mm | - | 129 W/m² | - |
| 1777476038 | 8.89° C | 89% | 1012.8 hPa | 0 mm | - | 156 W/m² | - |
| 1777475734 | 8.89° C | 88% | 1012.8 hPa | 0 mm | - | 150 W/m² | - |
| 1777475431 | 8.89° C | 88% | 1012.7 hPa | 0 mm | - | 95 W/m² | - |
| 1777475126 | 8.89° C | 88% | 1012.7 hPa | 0 mm | - | 125 W/m² | - |
| 1777474823 | 8.33° C | 88% | 1012.9 hPa | 0 mm | - | 147 W/m² | - |
| 1777474518 | 8.33° C | 88% | 1012.7 hPa | 0 mm | - | 162 W/m² | - |
| 1777474215 | 8.33° C | 89% | 1012.7 hPa | 0 mm | - | 227 W/m² | - |
| 1777473913 | 8.33° C | 90% | 1012.8 hPa | 0 mm | - | 166 W/m² | - |
| 1777473611 | 8.33° C | 90% | 1013 hPa | 0 mm | - | 148 W/m² | - |
| 1777473306 | 8.33° C | 91% | 1012.8 hPa | 0 mm | - | 126 W/m² | - |
| 1777473002 | 8.33° C | 91% | 1012.8 hPa | 0 mm | - | 95 W/m² | - |
| 1777472699 | 8.33° C | 91% | 1012.9 hPa | 0 mm | - | 80 W/m² | - |
| 1777472395 | 8.33° C | 92% | 1013 hPa | 0 mm | - | 82 W/m² | - |
| 1777472093 | 8.33° C | 92% | 1012.9 hPa | 0 mm | - | 72 W/m² | - |
| 1777471788 | 8.33° C | 91% | 1013.2 hPa | 0 mm | - | 45 W/m² | - |
| 1777471484 | 8.33° C | 91% | 1013 hPa | 0 mm | - | 50 W/m² | - |
| 1777471181 | 8.33° C | 92% | 1013 hPa | 0 mm | - | 69 W/m² | - |
| 1777470878 | 8.33° C | 92% | 1013.1 hPa | 0 mm | - | 68 W/m² | - |
| 1777470575 | 8.33° C | 92% | 1013.3 hPa | 0 mm | - | 54 W/m² | - |
* Rain latest hour (hover to see other rain measurements)
** Current wind speed in m/s (hover to see current wind gust speed)